Location: Gwatt
(46.7204°N, 7.6223°E)
Time: 12:09:24
(UTC+00:00)

Transit 2A - Pass Details

Date: 14 May 2021
Orbit: 601 x 958 km, 66.7° (Epoch: 15 June)

Event Time Altitude Azimuth Distance (km) Brightness Sun altitude
Exits shadow 01:06:54 57° 211° (SSW) 728 5.5 -20.8°
Maximum altitude 01:07:47 89° 122° (ESE) 619 5.4 -20.7°
Drops below altitude 10° 01:12:09 10° 34° (NE) 1,953 9.3 -20.4°
Sets 01:14:23 0° 34° (NE) 2,859 10.5 -20.2°
